Weather History for BGKK - January, 2014

Change the Weather History Date:

Tuesday, January 14, 2014

  Actual Average Record
Temperature  
Mean Temperature 25 °F -  
Max Temperature 33 °F 20 °F 33 °F (2000)
Min Temperature 17 °F 17 °F -4 °F (1997)
Degree Days  
Heating Degree Days 40    
Moisture  
Dew Point 11 °F    
Average Humidity 42    
Maximum Humidity 64    
Minimum Humidity 21    
Precipitation  
Precipitation 0.00 in - - ()
Sea Level Pressure  
Sea Level Pressure 29.89 in    
Wind  
Wind Speed 16 mph ()    
Max Wind Speed 38 mph    
Max Gust Speed 58 mph    
Visibility 6.6 miles    
Events Rain    
Averages and records for this station are not official NWS values.
T = Trace of Precipitation, MM = Missing Value Source: Averaged Metar Reports

Daily Weather History Graph

Daily Weather History Graph

Search for Another Location

Airport or City:

Trip Planner

Search our weather history database for the weather conditions in past years. The results will help you decide how hot, cold, wet, or windy it might be!

Date:

Astronomy

Jan. 14, 2014 Rise Set
Actual Time 9:17 AM WGT 1:58 PM WGT
Civil Twilight 8:01 AM WGT 3:14 PM WGT
Nautical Twilight 6:51 AM WGT 4:24 PM WGT
Astronomical Twilight 5:50 AM WGT 5:25 PM WGT
Moon 1:13 PM WGT (1/14) 7:29 AM WGT (1/14)
Length of Visible Light 7h 13m
Length of Day
4h 40m
Waxing Gibbous, 98% of the Moon is Illuminated
Jan 14
Waxing Gibbous
Jan 16
Full
Jan 24
Last Quarter
Jan 30
New
Feb 6
First Quarter

Hourly Weather History & Observations

Time (WGT) Temp. Windchill Dew Point Humidity Pressure Visibility Wind Dir Wind Speed Gust Speed Precip Events Conditions
12:00 AM 31 °F - 15 °F 37% 29.84 in 1 mi ENE 38.0 mph - - Rain Light Freezing Rain
12:20 AM 32.0 °F 16.5 °F 19.4 °F 60% 29.83 in 3.1 mi ENE 35.7 mph 52.9 mph N/A Rain Light Freezing Rain
12:50 AM 32.0 °F 17.4 °F 14.0 °F 48% 29.83 in 6.2 mi ENE 31.1 mph 57.5 mph N/A Rain Light Rain
1:00 AM 31 °F - 13 °F 34% 29.86 in 3 mi ENE 31.1 mph - - Rain Light Freezing Rain
1:20 AM 32.0 °F 17.9 °F 12.2 °F 44% 29.83 in 6.2 mi ENE 28.8 mph 48.3 mph N/A Rain Light Rain
1:50 AM 32.0 °F 17.9 °F 12.2 °F 44% 29.86 in 6.2 mi ENE 28.8 mph 48.3 mph N/A Rain Light Rain
2:00 AM 33 °F - 8 °F 21% 29.86 in 6 mi NE 19.6 mph - - Rain Light Rain
2:20 AM 32.0 °F 20.5 °F 12.2 °F 44% 29.86 in 6.2 mi NE 18.4 mph - N/A Rain Light Rain Showers
2:50 AM 32.0 °F 19.5 °F 14.0 °F 48% 29.86 in 6.2 mi ENE 21.9 mph 44.9 mph N/A Rain Light Rain Showers
3:00 AM 32 °F - 12 °F 29% 29.87 in 16 mi ENE 21.9 mph - - Rain Light Rain Showers
3:20 AM 32.0 °F 20.5 °F 14.0 °F 48% 29.86 in 6.2 mi NE 18.4 mph - N/A Rain Light Rain Showers
3:50 AM 32.0 °F 20.1 °F 14.0 °F 48% 29.86 in 6.2 mi ENE 19.6 mph 38.0 mph N/A Rain Light Rain Showers
4:00 AM 33 °F - 10 °F 25% 29.88 in 5 mi ENE 19.6 mph - - Rain Light Rain Showers
4:20 AM 32.0 °F 19.8 °F 14.0 °F 48% 29.86 in 6.2 mi NE 20.7 mph 36.8 mph N/A Rain Light Rain Showers
4:50 AM 33.8 °F 22.8 °F 14.0 °F 44% 29.86 in 6.2 mi ENE 18.4 mph - N/A   Mostly Cloudy
5:00 AM 33 °F - 11 °F 26% 29.89 in 14 mi NE 18.4 mph - -   Clear
5:20 AM 32.0 °F 21.6 °F 14.0 °F 48% 29.86 in 6.2 mi NE 15.0 mph 27.6 mph N/A   Light Drizzle
5:50 AM 33.8 °F 23.5 °F 14.0 °F 44% 29.89 in 6.2 mi NE 16.1 mph - N/A Rain Light Rain Showers
6:00 AM 33 °F - 11 °F 26% 29.89 in 22 mi NE 15.0 mph - - Rain Light Rain Showers
6:20 AM 33.8 °F 23.2 °F 15.8 °F 48% 29.89 in 6.2 mi NE 17.3 mph - N/A   Mostly Cloudy
6:50 AM 32.0 °F 20.8 °F 14.0 °F 48% 29.89 in 6.2 mi NE 17.3 mph 28.8 mph N/A Rain Light Rain Showers
7:00 AM 32 °F - 13 °F 31% 29.91 in 19 mi ENE 18.4 mph - - Rain Light Rain Showers
7:20 AM 30.2 °F 17.8 °F 19.4 °F 64% 29.89 in 6.2 mi East 19.6 mph 31.1 mph N/A Rain Light Freezing Rain
7:50 AM 32.0 °F 22.5 °F 17.6 °F 55% 29.89 in 6.2 mi NE 12.7 mph - N/A Rain Light Rain Showers
8:00 AM 31 °F - 15 °F 39% 29.92 in 7 mi NE 13.8 mph - - Rain Light Freezing Rain
8:20 AM 32.0 °F 23.0 °F 17.6 °F 55% 29.92 in 6.2 mi NNE 11.5 mph - N/A Rain Light Rain Showers
8:50 AM 30.2 °F 21.9 °F 17.6 °F 60% 29.89 in 6.2 mi NE 9.2 mph - N/A   Mostly Cloudy
9:00 AM 32 °F - 14 °F 33% 29.92 in 22 mi NE 10.4 mph - - Rain Rain
9:50 AM 32.0 °F 20.8 °F 15.8 °F 51% 29.89 in 6.2 mi ENE 17.3 mph 29.9 mph N/A   Mostly Cloudy
10:00 AM 31 °F - 15 °F 37% 29.93 in 22 mi ENE 17.3 mph - - Rain Light Freezing Rain
10:50 AM 32.0 °F 22.5 °F 17.6 °F 55% 29.89 in 6.2 mi ENE 12.7 mph - N/A   Mostly Cloudy
11:00 AM 31 °F - 13 °F 33% 29.92 in 22 mi ENE 9.2 mph - -   Clear
11:50 AM 32.0 °F 23.0 °F 14.0 °F 48% 29.89 in 6.2 mi ENE 11.5 mph 23.0 mph N/A   Mostly Cloudy
12:00 PM 31 °F - 13 °F 34% 29.92 in 22 mi NE 9.2 mph - -   Clear
12:50 PM 32.0 °F 26.4 °F 12.2 °F 44% 29.89 in 6.2 mi North 5.8 mph - N/A   Mostly Cloudy
1:00 PM 30 °F - 11 °F 31% 29.91 in 22 mi North 4.6 mph - -   Clear
1:50 PM 30.2 °F 24.3 °F 12.2 °F 47% 29.89 in 6.2 mi Variable 5.8 mph - N/A   Mostly Cloudy
2:00 PM 30 °F - 10 °F 28% 29.91 in 22 mi NNE 4.6 mph - -   Clear
2:50 PM 28.4 °F - 12.2 °F 51% 29.89 in 6.2 mi NE 2.3 mph - N/A   Mostly Cloudy
3:00 PM 28 °F - 9 °F 31% 29.92 in 22 mi ENE 2.3 mph - -   Partly Cloudy
3:50 PM 28.4 °F - 12.2 °F 51% 29.89 in 6.2 mi Variable 2.3 mph - N/A   Mostly Cloudy
4:00 PM 27 °F - 10 °F 33% 29.92 in 22 mi NNW 3.5 mph - -   Mostly Cloudy
4:20 PM 26.6 °F - 10.4 °F 51% 29.89 in 6.2 mi Variable 2.3 mph - N/A   Mostly Cloudy
4:50 PM 28.4 °F - 10.4 °F 47% 29.92 in 6.2 mi Variable 2.3 mph - N/A   Mostly Cloudy
5:00 PM 26 °F - 7 °F 30% 29.93 in 22 mi South 3.5 mph - -   Mostly Cloudy
5:20 PM 24.8 °F 19.1 °F 8.6 °F 50% 29.92 in 6.2 mi WSW 4.6 mph - N/A   Partly Cloudy
5:50 PM 26.6 °F - 6.8 °F 43% 29.89 in 6.2 mi Variable 1.2 mph - N/A   Partly Cloudy
6:00 PM 26 °F - 4 °F 24% 29.92 in 22 mi South 2.3 mph - -   Scattered Clouds
6:20 PM 26.6 °F - 8.6 °F 47% 29.89 in 6.2 mi SSW 2.3 mph - N/A   Unknown
6:50 PM 23.0 °F 18.4 °F 6.8 °F 50% 29.89 in 6.2 mi SSW 3.5 mph - N/A   Unknown
7:00 PM 24 °F - 3 °F 25% 29.91 in 22 mi WSW 3.5 mph - -  
7:20 PM 19.4 °F 14.3 °F 6.8 °F 58% 29.89 in 6.2 mi South 3.5 mph - N/A   Unknown
7:50 PM 21.2 °F 16.4 °F 5.0 °F 50% 29.89 in 6.2 mi WSW 3.5 mph - N/A   Unknown
8:00 PM 21 °F - 3 °F 30% 29.91 in 22 mi WSW 5.8 mph - -  
8:20 PM 23.0 °F 14.7 °F 5.0 °F 46% 29.89 in 6.2 mi WSW 6.9 mph - N/A   Unknown
8:50 PM 21.2 °F 11.7 °F 5.0 °F 50% 29.89 in 6.2 mi WSW 8.1 mph - N/A   Unknown
9:00 PM 21 °F - 2 °F 29% 29.90 in 22 mi West 4.6 mph - -  
9:20 PM 23.0 °F 18.4 °F 5.0 °F 46% 29.86 in 6.2 mi SW 3.5 mph - N/A   Unknown
9:50 PM 17.6 °F 10.7 °F 3.2 °F 53% 29.86 in 6.2 mi SSW 4.6 mph - N/A   Unknown
10:00 PM 22 °F - 1 °F 24% 29.89 in 22 mi South 4.6 mph - -  
10:20 PM 19.4 °F 14.3 °F 3.2 °F 49% 29.86 in 6.2 mi ESE 3.5 mph - N/A   Unknown
10:50 PM 19.4 °F - 3.2 °F 49% 29.86 in 6.2 mi Variable 2.3 mph - N/A   Unknown
11:00 PM 20 °F - 1 °F 28% 29.89 in 22 mi WNW 1.2 mph - -  
11:20 PM 21.2 °F - 3.2 °F 46% 29.86 in 6.2 mi Variable 1.2 mph - N/A   Unknown
11:50 PM 17.6 °F - 3.2 °F 53% 29.86 in 6.2 mi West 2.3 mph - N/A   Unknown